Weather History for Walhalla, ND

Change the Weather History Date:

Sunday, November 3, 2013

  Actual Average (KGAF) Record (KGAF)
Temperature  
Mean Temperature 43 °F -  
Max Temperature 53 °F 41 °F 68 °F (1981)
Min Temperature 33 °F 26 °F 4 °F (1991)
Degree Days  
Heating Degree Days 22    
Moisture  
Dew Point 33 °F    
Average Humidity 75    
Maximum Humidity 100    
Minimum Humidity 41    
Precipitation  
Precipitation 0.00 in - - ()
Sea Level Pressure  
Sea Level Pressure 29.72 in    
Wind  
Wind Speed 9 mph (SE)    
Max Wind Speed 29 mph    
Max Gust Speed 38 mph    
Visibility 10 miles    
Events      
Averages and records for this station are not official NWS values.
T = Trace of Precipitation, MM = Missing Value Source: NWS Daily Summary

Daily Weather History Graph

Daily Weather History Graph

Search for Another Location

Airport:

Trip Planner

Search our weather history database for the weather conditions in past years. The results will help you decide how hot, cold, wet, or windy it might be!

Date:

Astronomy

Nov. 03, 2013 Rise Set
Actual Time 7:22 AM CST 5:07 PM CST
Civil Twilight 6:48 AM CST 5:40 PM CST
Nautical Twilight 6:11 AM CST 6:18 PM CST
Astronomical Twilight 5:34 AM CST 6:54 PM CST
Moon 7:29 AM CST (11/3) 5:20 PM CST (11/3)
Length of Visible Light 10h 51m
Length of Day
9h 44m
New Moon, 0% of the Moon is Illuminated
Nov 3
New Moon
Nov 9
First Quarter
Nov 17
Full
Nov 25
Last Quarter
Dec 2
New

Hourly Weather History & Observations

Time (CST) Temp. Windchill Dew Point Humidity Pressure Visibility Wind Dir Wind Speed Gust Speed Precip Events Conditions
12:15 AM 37.4 °F 34.9 °F 33.8 °F 87% 29.90 in 10.0 mi SSE 3.5 mph - N/A   Overcast
12:35 AM 37.4 °F 34.9 °F 32.0 °F 81% 29.90 in 10.0 mi South 3.5 mph - N/A   Overcast
12:55 AM 37.4 °F 33.8 °F 33.8 °F 87% 29.90 in 10.0 mi SSE 4.6 mph - N/A   Mostly Cloudy
1:15 AM 35.6 °F 31.7 °F 33.8 °F 93% 29.90 in 10.0 mi ESE 4.6 mph - N/A   Mostly Cloudy
1:35 AM 33.8 °F 29.6 °F 33.8 °F 100% 29.90 in 10.0 mi ESE 4.6 mph - N/A   Mostly Cloudy
1:55 AM 33.8 °F 28.6 °F 33.8 °F 100% 29.90 in 10.0 mi ESE 5.8 mph - N/A   Mostly Cloudy
1:15 AM 35.6 °F 30.7 °F 33.8 °F 93% 29.90 in 10.0 mi East 5.8 mph - N/A   Scattered Clouds
1:35 AM 33.8 °F 29.6 °F 33.8 °F 100% 29.90 in 10.0 mi ESE 4.6 mph - N/A   Clear
1:55 AM 35.6 °F 29.9 °F 33.8 °F 93% 29.89 in 10.0 mi SE 6.9 mph - N/A   Clear
2:15 AM 33.8 °F 28.6 °F 33.8 °F 100% 29.88 in 10.0 mi SSE 5.8 mph - N/A   Partly Cloudy
2:35 AM 33.8 °F 27.0 °F 33.8 °F 100% 29.88 in 10.0 mi SE 8.1 mph - N/A   Mostly Cloudy
2:55 AM 35.6 °F 29.9 °F 35.6 °F 100% 29.88 in 10.0 mi SSE 6.9 mph - N/A   Mostly Cloudy
3:15 AM 35.6 °F 29.9 °F 35.6 °F 100% 29.87 in 10.0 mi SE 6.9 mph - N/A   Overcast
3:35 AM 35.6 °F 29.2 °F 35.6 °F 100% 29.86 in 10.0 mi SE 8.1 mph - N/A   Overcast
3:55 AM 35.6 °F 29.2 °F 35.6 °F 100% 29.86 in 10.0 mi SE 8.1 mph - N/A   Mostly Cloudy
4:15 AM 35.6 °F 30.7 °F 35.6 °F 100% 29.86 in 10.0 mi SE 5.8 mph - N/A   Scattered Clouds
4:35 AM 35.6 °F 29.9 °F 35.6 °F 100% 29.85 in 10.0 mi SE 6.9 mph - N/A   Mostly Cloudy
4:55 AM 33.8 °F 27.7 °F 33.8 °F 100% 29.84 in 10.0 mi SE 6.9 mph - N/A   Overcast
5:15 AM 35.6 °F 29.2 °F 35.6 °F 100% 29.84 in 10.0 mi SE 8.1 mph - N/A   Overcast
5:35 AM 35.6 °F 29.2 °F 35.6 °F 100% 29.83 in 10.0 mi SE 8.1 mph - N/A   Overcast
5:55 AM 35.6 °F 28.6 °F 35.6 °F 100% 29.83 in 10.0 mi SE 9.2 mph - N/A   Mostly Cloudy
6:15 AM 35.6 °F 29.2 °F 35.6 °F 100% 29.83 in 10.0 mi SE 8.1 mph - N/A   Mostly Cloudy
6:35 AM 35.6 °F 29.2 °F 35.6 °F 100% 29.83 in 10.0 mi SE 8.1 mph - N/A   Overcast
6:55 AM 35.6 °F 28.0 °F 35.6 °F 100% 29.82 in 10.0 mi ESE 10.4 mph - N/A   Overcast
7:15 AM 35.6 °F 29.2 °F 35.6 °F 100% 29.82 in 10.0 mi ESE 8.1 mph - N/A   Overcast
7:35 AM 35.6 °F 27.1 °F 35.6 °F 100% 29.80 in 10.0 mi ESE 12.7 mph - N/A   Overcast
7:55 AM 35.6 °F 27.5 °F 35.6 °F 100% 29.78 in 10.0 mi SE 11.5 mph - N/A   Overcast
8:15 AM 35.6 °F 28.0 °F 35.6 °F 100% 29.78 in 10.0 mi ESE 10.4 mph - N/A   Mostly Cloudy
8:35 AM 37.4 °F 29.8 °F 37.4 °F 100% 29.77 in 10.0 mi ESE 11.5 mph - N/A   Partly Cloudy
8:55 AM 37.4 °F 29.8 °F 37.4 °F 100% 29.76 in 10.0 mi ESE 11.5 mph - N/A   Scattered Clouds
9:15 AM 37.4 °F 28.9 °F 37.4 °F 100% 29.75 in 10.0 mi ESE 13.8 mph - N/A   Mostly Cloudy
9:35 AM 39.2 °F 31.2 °F 37.4 °F 93% 29.74 in 10.0 mi ESE 13.8 mph 18.4 mph N/A   Overcast
9:55 AM 41.0 °F 34.3 °F 37.4 °F 87% 29.72 in 10.0 mi ESE 11.5 mph 17.3 mph N/A   Mostly Cloudy
10:15 AM 42.8 °F 36.2 °F 37.4 °F 81% 29.71 in 10.0 mi ESE 12.7 mph - N/A   Clear
10:35 AM 44.6 °F 37.8 °F 37.4 °F 76% 29.70 in 10.0 mi SE 15.0 mph 19.6 mph N/A   Clear
10:55 AM 46.4 °F 39.8 °F 35.6 °F 66% 29.69 in 10.0 mi SE 16.1 mph 25.3 mph N/A   Clear
11:15 AM 48.2 °F - 32.0 °F 54% 29.68 in 10.0 mi SE 18.4 mph 23.0 mph N/A   Clear
11:35 AM 48.2 °F - 32.0 °F 54% 29.67 in 10.0 mi SE 20.7 mph 32.2 mph N/A   Clear
11:55 AM 48.2 °F - 32.0 °F 54% 29.65 in 10.0 mi SE 23.0 mph 32.2 mph N/A   Clear
12:15 PM 50.0 °F - 32.0 °F 50% 29.63 in 10.0 mi SE 20.7 mph 27.6 mph N/A   Clear
12:35 PM 50.0 °F - 32.0 °F 50% 29.63 in 10.0 mi SE 15.0 mph 28.8 mph N/A   Clear
12:55 PM 53.6 °F - 30.2 °F 41% 29.62 in 10.0 mi SSE 25.3 mph 34.5 mph N/A   Clear
1:15 PM 53.6 °F - 30.2 °F 41% 29.61 in 10.0 mi SSE 25.3 mph 38.0 mph N/A   Clear
1:35 PM 53.6 °F - 30.2 °F 41% 29.61 in 10.0 mi South 26.5 mph 35.7 mph N/A   Unknown
1:55 PM 53.6 °F - 30.2 °F 41% 29.61 in 10.0 mi SSE 28.8 mph 33.4 mph N/A   Partly Cloudy
2:15 PM 51.8 °F - 30.2 °F 44% 29.61 in 10.0 mi SSE 23.0 mph 33.4 mph N/A   Partly Cloudy
2:35 PM 50.0 °F - 30.2 °F 47% 29.61 in 10.0 mi South 20.7 mph 28.8 mph N/A   Partly Cloudy
2:55 PM 50.0 °F - 30.2 °F 47% 29.61 in 10.0 mi South 18.4 mph 27.6 mph N/A   Clear
3:15 PM 50.0 °F - 32.0 °F 50% 29.61 in 10.0 mi South 17.3 mph 26.5 mph N/A   Clear
3:35 PM 50.0 °F - 30.2 °F 47% 29.61 in 10.0 mi SSE 21.9 mph 34.5 mph N/A   Clear
3:55 PM 50.0 °F - 32.0 °F 50% 29.61 in 10.0 mi South 13.8 mph - N/A   Clear
4:15 PM 48.2 °F - 32.0 °F 54% 29.61 in 10.0 mi South 13.8 mph 18.4 mph N/A   Clear
4:35 PM 48.2 °F - 32.0 °F 54% 29.62 in 10.0 mi SSE 16.1 mph 23.0 mph N/A   Clear
4:55 PM 48.2 °F - 32.0 °F 54% 29.62 in 10.0 mi SSE 13.8 mph 23.0 mph N/A   Clear
5:15 PM 48.2 °F - 32.0 °F 54% 29.62 in 10.0 mi SSE 10.4 mph - N/A   Clear
5:35 PM 46.4 °F 42.4 °F 32.0 °F 57% 29.62 in 10.0 mi SE 8.1 mph - N/A   Clear
5:55 PM 42.8 °F 38.6 °F 32.0 °F 66% 29.62 in 10.0 mi SE 6.9 mph - N/A   Partly Cloudy
6:15 PM 42.8 °F 39.3 °F 32.0 °F 66% 29.62 in 10.0 mi ESE 5.8 mph - N/A   Partly Cloudy
6:35 PM 42.8 °F 38.6 °F 32.0 °F 66% 29.62 in 10.0 mi ESE 6.9 mph - N/A   Clear
6:55 PM 39.2 °F 35.0 °F 32.0 °F 75% 29.62 in 10.0 mi SE 5.8 mph - N/A   Partly Cloudy
7:15 PM 41.0 °F 35.2 °F 32.0 °F 70% 29.61 in 10.0 mi SE 9.2 mph - N/A   Scattered Clouds
7:35 PM 46.4 °F 41.1 °F 32.0 °F 57% 29.61 in 10.0 mi SE 11.5 mph - N/A   Overcast
7:55 PM 44.6 °F 41.4 °F 32.0 °F 61% 29.61 in 10.0 mi SE 5.8 mph - N/A   Overcast
8:15 PM 42.8 °F 38.6 °F 32.0 °F 66% 29.61 in 10.0 mi SE 6.9 mph - N/A   Overcast
8:35 PM 44.6 °F 41.4 °F 32.0 °F 61% 29.61 in 10.0 mi SSE 5.8 mph - N/A   Overcast
8:55 PM 44.6 °F 39.2 °F 32.0 °F 61% 29.61 in 10.0 mi SSE 10.4 mph - N/A   Overcast
9:15 PM 46.4 °F 40.7 °F 32.0 °F 57% 29.61 in 10.0 mi SSE 12.7 mph - N/A   Overcast
9:35 PM 44.6 °F 39.7 °F 32.0 °F 61% 29.61 in 10.0 mi South 9.2 mph - N/A   Overcast
9:55 PM 44.6 °F 39.7 °F 32.0 °F 61% 29.61 in 10.0 mi South 9.2 mph - N/A   Overcast
10:15 PM 44.6 °F 40.7 °F 32.0 °F 61% 29.61 in 10.0 mi South 6.9 mph - N/A   Overcast
10:35 PM 44.6 °F 40.7 °F 32.0 °F 61% 29.61 in 10.0 mi South 6.9 mph - N/A   Overcast
10:55 PM 44.6 °F 40.7 °F 32.0 °F 61% 29.61 in 10.0 mi South 6.9 mph - N/A   Overcast